Flag for Germany Weather past 2 weeks in Cloppenburg, Lower Saxony, Germany

Now
54 °F

Cool.


Feels Like: 53 °F
Forecast: 51 / 60 °F
Wind: 3 mph from Southwest

Location: Meppen-Mil

Current Time: Sep 5, 2015 at 3:29:23 AM

Latest Report: Sep 5, 2015 at 2:20 AM


Visibility: 4 mi

Pressure: 29.86 "Hg

Humidity: 94%

Dew point: 52 °F

Location of CloppenburgLocation

Historic Weather in Cloppenburg — Graph

°F

Cloppenburg temperature yesterday

Maximum temperature yesterday: 63 °F (at 3:20 PM)
Minimum temperature yesterday: 52 °F (at 1:20 AM)
Average temperature yesterday: 56 °F

Past Weeks' High & Low Weather Summary

 TemperatureHumidityPressure
High82 °F (Aug 31, 4:20 PM)100% (Aug 21, 7:20 AM)30.24 "Hg (Aug 21, 7:20 AM)
Low46 °F (Aug 29, 5:20 AM)28% (Aug 22, 4:20 PM)29.50 "Hg (Aug 24, 5:20 PM)
Average63 °F75%29.92 "Hg
* Reported Aug 21 2:20 AM — Sep 5 2:20 AM, Cloppenburg, Weather by CustomWeather, © 2015

Note: Actual official high and low records may vary slightly from our data, if they occured in-between our weather recording intervals... More about our weather records

Advertising

Cloppenburg weather history for previous 24 hours

 ConditionsComfort  
Time TempWeatherWind HumidityBarometerVisibility
2:20 AM
Sat, Sep 5
54 °FCool.3 mph94%29.86 "Hg4 mi
1:20 AM54 °FCool.2 mph94%29.83 "Hg4 mi
12:20 AM55 °FCool.2 mph94%29.83 "Hg4 mi
11:20 PM
Fri, Sep 4
57 °FCool.3 mph88%29.80 "Hg4 mi
10:20 PM55 °FCool.5 mph94%29.80 "Hg4 mi
9:20 PM55 °FCool.7 mph94%29.77 "Hg2 mi
8:20 PM55 °FCool.8 mph88%29.77 "Hg2 mi
7:20 PM57 °FCool.9 mph82%29.77 "Hg4 mi
6:20 PM57 °FCool.9 mph77%29.80 "Hg5 mi
5:20 PM59 °FCool.10 mph72%29.80 "Hg6 mi
4:20 PM61 °FCool.7 mph68%29.80 "Hg6 mi
3:20 PM63 °FMild.9 mph68%29.83 "Hg5 mi
2:20 PM61 °FCool.9 mph68%29.83 "Hg5 mi
1:20 PM61 °FBroken clouds.9 mph68%29.86 "HgN/A
12:20 PM59 °FPartly sunny.8 mph72%29.86 "HgN/A
11:20 AM59 °FPartly sunny.8 mph72%29.86 "HgN/A
10:20 AM57 °FPartly sunny.9 mph77%29.86 "HgN/A
9:20 AM55 °FBroken clouds.7 mph82%29.86 "HgN/A
8:20 AM52 °FPassing clouds.5 mph88%29.86 "HgN/A
7:20 AM52 °FPartly cloudy.5 mph88%29.86 "HgN/A
6:20 AM52 °FLight rain. Passing clouds.5 mph88%29.86 "HgN/A
5:20 AM52 °FCool.5 mph88%29.86 "Hg5 mi
4:20 AM52 °FCool.5 mph88%29.89 "Hg5 mi
3:20 AM52 °FCool.3 mph88%29.89 "Hg5 mi
Weather by CustomWeather, © 2015

See weather overviewHow to use our weather pages